Regional Weather Roundup
Issued by NWS

Home | Current Version | Previous Version | Graphics & Text | Print | Product List | Glossary On
Versions: 1 2 3 4 5 6 7 8 9 10 11 12 13 14 15 16 17 18 19 20 21 22 23 24 25 26 27
000
ASUS43 KDMX 222107
RWRIA

WEATHER ROUNDUP FOR IOWA
NATIONAL WEATHER SERVICE DES MOINES IA
400 PM CDT WED OCT 22 2014

NOTE: "FAIR" INDICATES FEW OR NO CLOUDS BELOW 12,000 FEET WITH NO
SIGNIFICANT WEATHER AND/OR OBSTRUCTIONS TO VISIBILITY.

* - THESE STATIONS ARE NOT NWS STATIONS...THUS NOT UNDER NWS
QUALITY CONTROL.  THEY ALSO DO NOT REPORT WEATHER SUCH
AS PRECIPITATION OR FOG.

IAZ001>003-012>014-020>022-031>034-043>046-222200-
   NORTHWEST IOWA

CITY           SKY/WX    TMP DP  RH WIND       PRES   REMARKS
CARROLL *      SUNNY     68  48  49 S17       30.05S
CHEROKEE *     PTSUNNY   72  52  49 S18       29.99S
DENISON *      SUNNY     72  52  49 S12G22    30.00F
LE MARS *      SUNNY     73  52  46 S18G29    29.94F
ORANGE CITY *  SUNNY     75  48  38 S17G26    29.94F
SHELDON *      SUNNY     73  52  46 S20G29    29.94F
SIOUX CITY     CLOUDY    74  53  48 S15G21    29.95F
SPENCER        MOSUNNY   70  48  45 S22G29    30.00F
STORM LAKE *   SUNNY     70  50  49 S22G28    30.02F
$$

IAZ055>058-069>071-079>083-090>094-222200-
   SOUTHWEST IOWA

CITY           SKY/WX    TMP DP  RH WIND       PRES   REMARKS
ATLANTIC *     SUNNY     68  52  56 S9G22     30.04F
AUDUBON *      SUNNY     70  48  46 S13G23    30.06F
CLARINDA *     SUNNY     72  52  49 SE14      30.07F
COUNCIL BLFS * SUNNY     73  55  53 S16G24    30.00F
CRESTON *      PTSUNNY   64  48  55 SE15G25   30.10F
HARLAN  *      SUNNY     72  54  53 S14G22    30.06S
LAMONI         LGT RAIN  65  48  54 SE12      30.12F
RED OAK *      SUNNY     72  54  53 SE15G21   30.04F
SHENANDOAH *   SUNNY     75  55  50 SE17      30.04F
$$

IAZ047>049-059>061-072>074-084-222200-
   CENTRAL IOWA

CITY           SKY/WX    TMP DP  RH WIND       PRES   REMARKS
AMES           PTSUNNY   63  45  51 SE15G24   30.11F
ANKENY *       MOSUNNY   64  48  55 SE15G21   30.11F
CHARITON *     PTSUNNY   64  46  52 SE14G20   30.14S
DES MOINES     MOSUNNY   67  47  48 S15       30.12F
GRINNELL*      SUNNY     63  43  48 SE14      30.17S
KNOXVILLE *    PTSUNNY   63  45  51 SE12G20   30.13F
MARSHALLTOWN   PTSUNNY   61  43  51 SE15      30.15S
PELLA *        SUNNY     64  45  48 SE15      30.17S
PERRY *        PTSUNNY   66  46  48 SE16      30.09S
$$

IAZ004>006-015-016-023>025-035-036-222200-
   NORTH CENTRAL IOWA

CITY           SKY/WX    TMP DP  RH WIND       PRES   REMARKS
ALGONA *       MOSUNNY   64  46  52 SE20      30.06F
CLARION *      PTSUNNY   64  45  48 SE17G25   30.09F
ESTHERVILLE    PTSUNNY   65  46  50 S28G35    30.02F
FORT DODGE *   PTSUNNY   64  45  48 S13       30.08F
MASON CITY     MOSUNNY   61  43  51 S23       30.13F
FOREST CITY *  PTSUNNY   61  45  55 SE16G24   30.10F
IOWA FALLS *   PTSUNNY   61  43  51 SE18      30.14F
$$

IAZ007>011-017>019-026>030-037>042-050>054-066-222200-
   NORTHEAST IOWA

CITY           SKY/WX    TMP DP  RH WIND       PRES   REMARKS
CEDAR RAPIDS   SUNNY     60  41  49 SE14      30.19F
CHARLES CITY * PTSUNNY   59  39  47 SE17      30.16F
CLINTON *      SUNNY     59  37  44 S10       30.27F
DECORAH *      MOSUNNY   57  37  47 SE13      30.18F
DUBUQUE        SUNNY     57  37  47 SE12      30.24F
MONTICELLO *   SUNNY     61  39  44 SE14      30.22F
OELWEIN *      SUNNY     59  39  47 S16       30.19F
WATERLOO       SUNNY     60  41  49 S14       30.17S
$$

IAZ064-065-067-068-078-222200-
   EAST CENTRAL IOWA

CITY           SKY/WX    TMP DP  RH WIND       PRES   REMARKS
DAVENPORT      SUNNY     60  36  40 SE14      30.24F
IOWA CITY      SUNNY     60  42  51 SE10      30.22F
MT. PLEASANT * SUNNY     63  39  42 S7        30.21F
MUSCATINE *    SUNNY     63  37  39 S12       30.23F
QUAD CITIES    SUNNY     61  38  42 S8        30.24F
$$

IAZ062-063-075>077-085>089-095>099-222200-
   SOUTHEAST IOWA

CITY           SKY/WX    TMP DP  RH WIND       PRES   REMARKS
BURLINGTON     SUNNY     61  40  45 SE10      30.22F
FAIRFIELD *    SUNNY     61  41  48 SE15      30.19F
FORT MADISON * SUNNY     64  41  42 S6        30.22F
KEOKUK *       SUNNY     63  41  45 SE12      30.21F
OSKALOOSA *      N/A     64  41  42 SE12      30.17F
CENTERVILLE *  SUNNY     64  45  48 SE10      30.17F
WASHINGTON *   SUNNY     63  41  45 SE15      30.20F
$$

ABBREVIATIONS USED IN REMARKS
   TC - TEMPERATURES IN CELSIUS
  WCI - WIND CHILL INDEX
   HX - HEAT INDEX
  VSB - VISIBILITY
$$




USA.gov is the U.S. government's official web portal to all federal, state and local government web resources and services.